| time (UTC) | temp F | wind direction | speed knots | gust knots | rain 1hr in | rain 24hr in | rain mn in | humidity % | barometer mb |
| 20260902092317 | 63 | 270 | 4.3 | 13.0 | 0.00 | 0.00 | 0.00 | 45 | 1016.0 |
| 20260902091317 | 64 | 225 | 4.3 | 7.0 | 0.00 | 0.00 | 0.00 | 46 | 1016.1 |
| 20260902090317 | 64 | 225 | 3.5 | 7.8 | 0.00 | 0.00 | 0.00 | 46 | 1016.1 |
| 20260902085317 | 64 | 270 | 3.5 | 8.7 | 0.00 | 0.00 | 0.00 | 45 | 1016.2 |
| 20260902084317 | 64 | 248 | 4.3 | 7.0 | 0.00 | 0.00 | 0.00 | 45 | 1016.2 |
| 20260902083317 | 65 | 248 | 3.5 | 6.1 | 0.00 | 0.00 | 0.00 | 44 | 1016.2 |
| 20260902082317 | 65 | 248 | 3.5 | 7.8 | 0.00 | 0.00 | 0.00 | 44 | 1016.2 |
| 20260902081317 | 64 | 270 | 3.5 | 6.1 | 0.00 | 0.00 | 0.00 | 44 | 1016.3 |
| 20260902080317 | 64 | 248 | 0.9 | 2.6 | 0.00 | 0.00 | 0.00 | 43 | 1016.0 |
| 20260902075317 | 64 | 248 | 0.9 | 1.7 | 0.00 | 0.00 | 0.00 | 41 | 1015.9 |
| 20260902074317 | 64 | 270 | 0.9 | 2.6 | 0.00 | 0.00 | 0.00 | 39 | 1015.9 |
| 20260902073337 | 64 | 0.0 | 0.9 | 0.00 | 0.00 | 0.00 | 38 | 1016.0 | |
| 20260902072317 | 65 | 225 | 0.9 | 1.7 | 0.00 | 0.00 | 0.00 | 38 | 1015.9 |
| 20260902071317 | 65 | 270 | 0.9 | 1.7 | 0.00 | 0.00 | 0.00 | 37 | 1015.8 |
| 20260902070337 | 65 | 248 | 0.9 | 1.7 | 0.00 | 0.00 | 0.00 | 36 | 1015.9 |
| 20260902065317 | 65 | 0.0 | 0.0 | 0.00 | 0.00 | 0.00 | 30 | 1015.8 | |
| 20260902064317 | 66 | 248 | 0.9 | 2.6 | 0.00 | 0.00 | 0.00 | 29 | 1015.9 |
| 20260902063337 | 65 | 248 | 3.5 | 6.1 | 0.00 | 0.00 | 0.00 | 29 | 1015.7 |
| 20260902062317 | 65 | 225 | 0.9 | 1.7 | 0.00 | 0.00 | 0.00 | 29 | 1015.6 |
| 20260902061317 | 66 | 225 | 1.7 | 2.6 | 0.00 | 0.00 | 0.00 | 27 | 1015.5 |
| 20260902060317 | 67 | 225 | 3.5 | 6.1 | 0.00 | 0.00 | 0.00 | 26 | 1015.6 |
| 20260902055317 | 67 | 225 | 2.6 | 4.3 | 0.00 | 0.00 | 0.00 | 29 | 1015.5 |
| 20260902054317 | 67 | 225 | 2.6 | 3.5 | 0.00 | 0.00 | 0.00 | 30 | 1015.5 |
| 20260902053317 | 68 | 225 | 2.6 | 4.3 | 0.00 | 0.00 | 0.00 | 32 | 1015.7 |
| 20260902052317 | 69 | 225 | 3.5 | 6.1 | 0.00 | 0.00 | 0.00 | 31 | 1015.7 |
| 20260902051317 | 69 | 225 | 6.1 | 9.6 | 0.00 | 0.00 | 0.00 | 33 | 1015.6 |
| 20260902050317 | 69 | 248 | 6.1 | 7.8 | 0.00 | 0.00 | 0.00 | 34 | 1015.5 |
| 20260902045317 | 69 | 270 | 3.5 | 6.1 | 0.00 | 0.00 | 0.00 | 35 | 1015.3 |
| 20260902044337 | 69 | 270 | 4.3 | 7.8 | 0.00 | 0.00 | 0.00 | 34 | 1015.1 |
| 20260902043317 | 69 | 270 | 4.3 | 8.7 | 0.00 | 0.00 | 0.00 | 34 | 1015.0 |
| 20260902042317 | 69 | 270 | 1.7 | 4.3 | 0.00 | 0.00 | 0.00 | 35 | 1014.9 |
| 20260902041337 | 69 | 270 | 3.5 | 7.8 | 0.00 | 0.00 | 0.00 | 34 | 1014.8 |
| 20260902040337 | 70 | 248 | 6.1 | 9.6 | 0.00 | 0.00 | 0.00 | 33 | 1014.5 |
| 20260902035317 | 70 | 270 | 7.0 | 10.4 | 0.00 | 0.00 | 0.00 | 33 | 1014.1 |
| 20260902034317 | 70 | 248 | 5.2 | 9.6 | 0.00 | 0.00 | 0.00 | 33 | 1013.9 |
| 20260902033317 | 70 | 225 | 4.3 | 8.7 | 0.00 | 0.00 | 0.00 | 34 | 1013.8 |
| 20260902032357 | 71 | 225 | 6.1 | 8.7 | 0.00 | 0.00 | 0.00 | 32 | 1013.6 |
| 20260902031317 | 71 | 225 | 6.1 | 9.6 | 0.00 | 0.00 | 0.00 | 31 | 1013.5 |
| 20260902030316 | 71 | 225 | 8.7 | 10.4 | 0.00 | 0.00 | 0.00 | 26 | 1013.4 |
| 20260902025317 | 72 | 225 | 6.1 | 8.7 | 0.00 | 0.00 | 0.00 | 27 | 1012.7 |
| 20260902024317 | 72 | 248 | 6.1 | 9.6 | 0.00 | 0.00 | 0.00 | 25 | 1012.6 |
| 20260902023317 | 73 | 225 | 7.8 | 12.2 | 0.00 | 0.00 | 0.00 | 25 | 1012.5 |
| 20260902022316 | 74 | 225 | 6.1 | 9.6 | 0.00 | 0.00 | 0.00 | 25 | 1012.6 |
| 20260902021316 | 74 | 248 | 7.0 | 11.3 | 0.00 | 0.00 | 0.00 | 25 | 1012.7 |
| 20260902020316 | 75 | 225 | 7.8 | 10.4 | 0.00 | 0.00 | 0.00 | 24 | 1012.7 |
| 20260902015316 | 76 | 225 | 7.0 | 11.3 | 0.00 | 0.00 | 0.00 | 24 | 1012.7 |
| 20260902014337 | 77 | 225 | 7.8 | 11.3 | 0.00 | 0.00 | 0.00 | 23 | 1012.8 |
| 20260902013316 | 78 | 225 | 12.2 | 15.6 | 0.00 | 0.00 | 0.00 | 24 | 1012.7 |
| 20260902012316 | 78 | 203 | 14.8 | 19.1 | 0.00 | 0.00 | 0.00 | 24 | 1012.6 |
| 20260902011317 | 79 | 203 | 13.0 | 20.9 | 0.00 | 0.00 | 0.00 | 21 | 1012.7 |
| 20260902010317 | 80 | 203 | 14.8 | 19.1 | 0.00 | 0.00 | 0.00 | 23 | 1012.7 |
| 20260902005317 | 80 | 225 | 11.3 | 14.8 | 0.00 | 0.00 | 0.00 | 25 | 1012.7 |
| 20260902004316 | 81 | 225 | 9.6 | 11.3 | 0.00 | 0.00 | 0.00 | 23 | 1012.7 |
| 20260902003316 | 81 | 225 | 11.3 | 14.8 | 0.00 | 0.00 | 0.00 | 23 | 1012.8 |
| 20260902002337 | 82 | 203 | 10.4 | 14.8 | 0.00 | 0.00 | 0.00 | 21 | 1013.0 |
| 20260902001317 | 82 | 225 | 11.3 | 18.2 | 0.00 | 0.00 | 0.00 | 20 | 1013.0 |
| 20260902000316 | 82 | 203 | 13.9 | 20.9 | 0.00 | 0.00 | 0.00 | 20 | 1013.1 |
| 20260901235316 | 83 | 203 | 12.2 | 16.5 | 0.00 | 0.00 | 0.00 | 20 | 1013.2 |
| 20260901234316 | 83 | 225 | 9.6 | 13.0 | 0.00 | 0.00 | 0.00 | 19 | 1013.3 |
| 20260901233316 | 83 | 203 | 11.3 | 18.2 | 0.00 | 0.00 | 0.00 | 19 | 1013.4 |
| 20260901232316 | 83 | 225 | 10.4 | 16.5 | 0.00 | 0.00 | 0.00 | 19 | 1013.4 |
| 20260901231316 | 83 | 225 | 15.6 | 19.1 | 0.00 | 0.00 | 0.00 | 19 | 1013.5 |
| 20260901230317 | 83 | 225 | 13.0 | 17.4 | 0.00 | 0.00 | 0.00 | 19 | 1013.5 |
| 20260901225316 | 83 | 225 | 9.6 | 14.8 | 0.00 | 0.00 | 0.00 | 20 | 1013.6 |
| 20260901224316 | 83 | 203 | 11.3 | 14.8 | 0.00 | 0.00 | 0.00 | 20 | 1013.4 |
| 20260901223316 | 83 | 203 | 13.9 | 20.9 | 0.00 | 0.00 | 0.00 | 22 | 1013.4 |
| 20260901222317 | 83 | 203 | 14.8 | 20.9 | 0.00 | 0.00 | 0.00 | 21 | 1013.7 |
| 20260901221316 | 83 | 203 | 13.9 | 18.2 | 0.00 | 0.00 | 0.00 | 20 | 1013.7 |
| 20260901220336 | 83 | 248 | 12.2 | 17.4 | 0.00 | 0.00 | 0.00 | 20 | 1013.7 |
| 20260901215316 | 82 | 203 | 20.0 | 24.3 | 0.00 | 0.00 | 0.00 | 20 | 1013.5 |
| 20260901214316 | 83 | 225 | 15.6 | 22.6 | 0.00 | 0.00 | 0.00 | 19 | 1013.7 |
| 20260901213317 | 83 | 225 | 12.2 | 18.2 | 0.00 | 0.00 | 0.00 | 18 | 1014.0 |
| 20260901212316 | 83 | 248 | 7.0 | 11.3 | 0.00 | 0.00 | 0.00 | 18 | 1014.3 |
| 20260901211316 | 83 | 225 | 10.4 | 14.8 | 0.00 | 0.00 | 0.00 | 16 | 1014.4 |
| 20260901210316 | 83 | 225 | 13.0 | 20.0 | 0.00 | 0.00 | 0.00 | 17 | 1014.4 |
| 20260901205316 | 83 | 225 | 12.2 | 15.6 | 0.00 | 0.00 | 0.00 | 17 | 1014.5 |
| 20260901204336 | 82 | 203 | 8.7 | 13.0 | 0.00 | 0.00 | 0.00 | 17 | 1014.6 |
| 20260901203316 | 82 | 203 | 8.7 | 11.3 | 0.00 | 0.00 | 0.00 | 15 | 1014.7 |
| 20260901202316 | 82 | 203 | 7.0 | 10.4 | 0.00 | 0.00 | 0.00 | 16 | 1014.9 |
| 20260901201316 | 83 | 225 | 10.4 | 14.8 | 0.00 | 0.00 | 0.00 | 14 | 1015.2 |
| 20260901200316 | 83 | 225 | 7.8 | 13.0 | 0.00 | 0.00 | 0.00 | 13 | 1015.1 |
| 20260901195316 | 83 | 225 | 7.0 | 11.3 | 0.00 | 0.00 | 0.00 | 14 | 1015.3 |
| 20260901194316 | 82 | 225 | 7.8 | 12.2 | 0.00 | 0.00 | 0.00 | 15 | 1015.3 |
| 20260901193356 | 81 | 225 | 8.7 | 13.9 | 0.00 | 0.00 | 0.00 | 16 | 1015.3 |
| 20260901192316 | 81 | 203 | 9.6 | 13.0 | 0.00 | 0.00 | 0.00 | 16 | 1015.6 |
| 20260901191316 | 80 | 203 | 7.8 | 11.3 | 0.00 | 0.00 | 0.00 | 16 | 1015.5 |
| 20260901190336 | 81 | 225 | 7.0 | 11.3 | 0.00 | 0.00 | 0.00 | 16 | 1015.7 |
| 20260901185316 | 81 | 248 | 7.0 | 11.3 | 0.00 | 0.00 | 0.00 | 15 | 1016.0 |
| 20260901184316 | 80 | 203 | 9.6 | 13.0 | 0.00 | 0.00 | 0.00 | 15 | 1015.9 |
| 20260901183336 | 80 | 225 | 7.8 | 13.0 | 0.00 | 0.00 | 0.00 | 14 | 1016.0 |
| 20260901182316 | 80 | 225 | 7.0 | 12.2 | 0.00 | 0.00 | 0.00 | 15 | 1016.1 |
| 20260901181336 | 80 | 225 | 7.8 | 10.4 | 0.00 | 0.00 | 0.00 | 15 | 1015.9 |
| 20260901180316 | 79 | 203 | 8.7 | 13.0 | 0.00 | 0.00 | 0.00 | 15 | 1015.8 |
| 20260901175316 | 79 | 203 | 6.1 | 7.8 | 0.00 | 0.00 | 0.00 | 15 | 1015.7 |
| 20260901174316 | 79 | 225 | 9.6 | 13.0 | 0.00 | 0.00 | 0.00 | 15 | 1015.8 |
| 20260901173336 | 79 | 203 | 5.2 | 8.7 | 0.00 | 0.00 | 0.00 | 15 | 1015.6 |
| 20260901172316 | 78 | 248 | 7.8 | 12.2 | 0.00 | 0.00 | 0.00 | 15 | 1015.7 |
| 20260901171316 | 78 | 248 | 7.0 | 9.6 | 0.00 | 0.00 | 0.00 | 15 | 1015.7 |
| 20260901170315 | 78 | 225 | 5.2 | 8.7 | 0.00 | 0.00 | 0.00 | 15 | 1015.8 |
| 20260901165316 | 77 | 248 | 4.3 | 7.0 | 0.00 | 0.00 | 0.00 | 16 | 1015.7 |
| 20260901164315 | 77 | 225 | 7.8 | 10.4 | 0.00 | 0.00 | 0.00 | 16 | 1015.5 |
| 20260901163315 | 76 | 225 | 9.6 | 13.0 | 0.00 | 0.00 | 0.00 | 15 | 1015.3 |
| 20260901162336 | 76 | 225 | 9.6 | 16.5 | 0.00 | 0.00 | 0.00 | 15 | 1015.3 |
| 20260901161356 | 76 | 203 | 9.6 | 11.3 | 0.00 | 0.00 | 0.00 | 15 | 1015.3 |
| 20260901160315 | 75 | 225 | 7.8 | 12.2 | 0.00 | 0.00 | 0.00 | 14 | 1015.4 |
| 20260901155315 | 74 | 225 | 5.2 | 8.7 | 0.00 | 0.00 | 0.00 | 13 | 1015.2 |
| 20260901154335 | 74 | 225 | 4.3 | 6.1 | 0.00 | 0.00 | 0.00 | 13 | 1015.2 |
| 20260901153316 | 73 | 248 | 4.3 | 7.0 | 0.00 | 0.00 | 0.00 | 13 | 1015.2 |
| 20260901152335 | 73 | 248 | 3.5 | 5.2 | 0.00 | 0.00 | 0.00 | 12 | 1015.2 |
| 20260901151316 | 72 | 248 | 2.6 | 7.0 | 0.00 | 0.00 | 0.00 | 12 | 1015.2 |
| 20260901150316 | 71 | 248 | 4.3 | 7.0 | 0.00 | 0.00 | 0.00 | 11 | 1015.1 |
| 20260901145316 | 69 | 248 | 3.5 | 5.2 | 0.00 | 0.00 | 0.00 | 12 | 1015.1 |
| 20260901144316 | 64 | 0.0 | 0.9 | 0.00 | 0.00 | 0.00 | 17 | 1014.8 | |
| 20260901143315 | 63 | 315 | 3.5 | 5.2 | 0.00 | 0.00 | 0.00 | 18 | 1014.5 |
| 20260901142317 | 63 | 315 | 0.9 | 2.6 | 0.00 | 0.00 | 0.00 | 19 | 1014.7 |
| 20260901141318 | 63 | 315 | 1.7 | 2.6 | 0.00 | 0.00 | 0.00 | 19 | 1014.6 |
| 20260901140317 | 66 | 315 | 1.7 | 2.6 | 0.00 | 0.00 | 0.00 | 19 | 1014.6 |
| 20260901135317 | 66 | 248 | 2.6 | 6.1 | 0.00 | 0.00 | 0.00 | 20 | 1014.8 |
| 20260901134317 | 65 | 248 | 3.5 | 7.0 | 0.00 | 0.00 | 0.00 | 21 | 1014.7 |
| 20260901133317 | 65 | 248 | 4.3 | 6.1 | 0.00 | 0.00 | 0.00 | 20 | 1014.6 |
| 20260901132318 | 65 | 248 | 4.3 | 6.1 | 0.00 | 0.00 | 0.00 | 21 | 1014.7 |
| 20260901131317 | 64 | 248 | 4.3 | 6.1 | 0.00 | 0.00 | 0.00 | 23 | 1014.7 |
| 20260901130315 | 65 | 225 | 4.3 | 6.1 | 0.00 | 0.00 | 0.00 | 22 | 1014.9 |
| 20260901125337 | 65 | 248 | 4.3 | 5.2 | 0.00 | 0.00 | 0.00 | 22 | 1014.9 |
| 20260901124317 | 65 | 248 | 3.5 | 7.0 | 0.00 | 0.00 | 0.00 | 21 | 1014.9 |
| 20260901123317 | 64 | 248 | 3.5 | 6.1 | 0.00 | 0.00 | 0.00 | 22 | 1014.9 |
| 20260901122317 | 64 | 248 | 3.5 | 5.2 | 0.00 | 0.00 | 0.00 | 22 | 1014.8 |
| 20260901121317 | 65 | 248 | 2.6 | 3.5 | 0.00 | 0.00 | 0.00 | 21 | 1014.9 |
| 20260901120317 | 65 | 225 | 3.5 | 7.8 | 0.00 | 0.00 | 0.00 | 21 | 1014.7 |
| 20260901115337 | 65 | 248 | 3.5 | 6.1 | 0.00 | 0.00 | 0.00 | 19 | 1014.7 |
| 20260901114317 | 65 | 225 | 3.5 | 6.1 | 0.00 | 0.00 | 0.00 | 16 | 1014.6 |
| 20260901113317 | 65 | 248 | 3.5 | 6.1 | 0.00 | 0.00 | 0.00 | 15 | 1014.5 |
| 20260901112317 | 65 | 248 | 3.5 | 6.1 | 0.00 | 0.00 | 0.00 | 15 | 1014.6 |
| 20260901111317 | 65 | 225 | 3.5 | 7.8 | 0.00 | 0.00 | 0.00 | 16 | 1014.4 |
| 20260901110337 | 65 | 225 | 3.5 | 7.8 | 0.00 | 0.00 | 0.00 | 16 | 1014.5 |
| 20260901105317 | 65 | 248 | 3.5 | 6.1 | 0.00 | 0.00 | 0.00 | 16 | 1014.6 |
| 20260901104317 | 64 | 248 | 3.5 | 8.7 | 0.00 | 0.00 | 0.00 | 17 | 1014.6 |
| 20260901103337 | 63 | 225 | 3.5 | 5.2 | 0.00 | 0.00 | 0.00 | 18 | 1014.5 |
| 20260901102317 | 64 | 225 | 3.5 | 5.2 | 0.00 | 0.00 | 0.00 | 18 | 1014.5 |
| 20260901101317 | 64 | 225 | 3.5 | 6.1 | 0.00 | 0.00 | 0.00 | 19 | 1014.6 |
| 20260901100337 | 65 | 225 | 2.6 | 4.3 | 0.00 | 0.00 | 0.00 | 20 | 1014.5 |
| 20260901095338 | 64 | 248 | 3.5 | 5.2 | 0.00 | 0.00 | 0.00 | 21 | 1014.7 |
| 20260901094337 | 65 | 225 | 3.5 | 5.2 | 0.00 | 0.00 | 0.00 | 22 | 1014.7 |
| 20260901093337 | 65 | 225 | 3.5 | 6.1 | 0.00 | 0.00 | 0.00 | 21 | 1014.7 |